Regional Weather Roundup
Issued by NWS San Diego, CA

Home | Current Version | Previous Version | Text Only | Print | Product List | Glossary On
Versions: 1 2 3 4 5 6 7 8 9 10 11 12 13 14 15 16 17 18 19 20 21 22 23 24 25 26 27 28 29 30 31 32 33 34 35 36 37 38 39 40 41 42 43 44 45 46 47 48 49 50
000
ASUS46 KSGX 251811
RWRSGX

SAN DIEGO HOURLY WEATHER ROUNDUP
NATIONAL WEATHER SERVICE SAN DIEGO CA
1000 AM PST SUN FEB 25 2018

NOTE: "FAIR" INDICATES FEW OR NO CLOUDS BELOW 12,000 FEET WITH NO
SIGNIFICANT WEATHER AND/OR OBSTRUCTIONS TO VISIBILITY.

CAZ042-043-060-061-PZZ750-775-251900-

GREATER SAN DIEGO AREA

CITY           SKY/WX    TMP DP  RH WIND       PRES   REMARKS
SAN DIEGO AP   SUNNY     59  28  30 N9        30.22F
NATIONAL CITY    N/A     60  32  34 N5        30.22F
CHULA VISTA      N/A     59  35  41 E3        30.12S
IMPERIAL BEACH SUNNY     60  28  29 N9        30.21S
BROWN FIELD    SUNNY     60  25  26 N6        30.19S
MIRAMAR MCAS   SUNNY     63  32  31 NW6       30.20S
MONTGOMERY FLD SUNNY     60  31  33 NW7       30.20F
GILLESPIE FLD  SUNNY     54  28  37 CALM      30.21F

$$

NORTH SAN DIEGO COUNTY

CITY           SKY/WX    TMP DP  RH WIND       PRES   REMARKS
CAMP PENDLETON SUNNY     60  30  32 SW5       30.21F
OCEANSIDE AP   SUNNY     58  32  37 CALM      30.20F
OCEANSIDE HBR    N/A     56  36  47 CALM      30.23F
VISTA            N/A     58  35  42 CALM      30.20S
CARLSBAD       SUNNY     57  28  33 VRB3      30.20F
DEL MAR          N/A     56  40  55 CALM      30.23S
LA JOLLA SCRIP   N/A     54  40  59 W3        30.22S
FALLBROOK        N/A     59  32  36 CALM      30.21F
ESCONDIDO        N/A     61  33  34 SW3       30.21F
SAN MARCOS       N/A     59  34  39 CALM      30.24F
POWAY            N/A     57  34  42 CALM      30.21F

$$

EAST SAN DIEGO COUNTY

CITY           SKY/WX    TMP DP  RH WIND       PRES   REMARKS
RAMONA         SUNNY     62  15  16 E17G24    30.18F
SANTEE LAKES     N/A     56  35  45 CALM      30.20F
LA MESA          N/A     56  30  36 CALM      30.15F
JAMUL            N/A     56  27  32 W2        30.22F
CAMPO            N/A     51  11  20 E28G38    30.17R

$$

ORANGE COUNTY AND THE LOS ANGELES BASIN

CITY           SKY/WX    TMP DP  RH WIND       PRES   REMARKS
JOHN WAYNE AP  SUNNY     58  35  42 W3        30.22F
LAGUNA BEACH     N/A     58  41  54 CALM      30.18S
LAKE FOREST FR   N/A     57  33  40 SW3       30.11S
HUNTINGTON BCH   N/A     60  44  55 W3        30.24S
LOS ALAMITOS   SUNNY     58  34  40 NW7       30.22F
FULLERTON      SUNNY     60  29  30 CALM      30.22S
LONG BEACH     SUNNY     59  38  45 N6        30.23F
L.A. AP        MOSUNNY   60  32  34 NE8       30.23F
L.A. DOWNTOWN  SUNNY     60  28  29 CALM      30.22F

$$

THE INLAND EMPIRE

CITY           SKY/WX    TMP DP  RH WIND       PRES   REMARKS
CORONA         SUNNY     62  19  19 E12       30.23S
CHINO          SUNNY     60  27  28 N6        30.23S
ONTARIO        SUNNY     56  27  32 W7        30.22R
SAN BERNARDINO SUNNY     57  19  23 MISG      30.23S
RIVERSIDE AP   SUNNY     58  20  22 VRB5      30.23R
MORENO VALLEY    N/A     57  29  34 SW3       28.31S
MARCH ARB      SUNNY     58  11  15 E16       30.21S
HORSETHIEF CYN   N/A     57  15  19 E2        30.25F
PERRIS           N/A     56  26  31 E7        30.15F
HEMET EAST       N/A     52  19  27 W3        30.19S
FRENCH VALLEY  FAIR      55  25  30 N7        30.21F
TEMECULA         N/A     50  38  65 CALM      30.25F

$$

SAN BERNARDINO AND RIVERSIDE COUNTY MOUNTAINS

CITY           SKY/WX    TMP DP  RH WIND       PRES   REMARKS
BIG BEAR AP      N/A     37  -6  15 E12       30.21S WCI  30
ANGELUS OAKS     N/A     41  15  34 CALM      30.25S

$$

SOUTHERN DESERT INCLUDING THE COACHELLA VALLEY

CITY           SKY/WX    TMP DP  RH WIND       PRES   REMARKS
PALM SPRINGS   SUNNY     63  12  13 VRB5      30.30S
THOUSAND PALMS   N/A     63  17  17 NE6       30.26F
PALM DESERT      N/A     64  21  19 CALM        N/A
THERMAL        SUNNY     67  12  12 VRB3      30.28R
BLYTHE         SUNNY     57  13  17 E7        30.29S
IMPERIAL AP    SUNNY     62  21  20 N7        30.28S
EL CENTRO NAS  SUNNY     63  17  17 N10       30.30S
YUMA AZ        SUNNY     59  14  17 NE7       30.26F
MEXICALI       SUNNY     61  18  18 N12       30.29S

$$

UPPER DESERT

CITY           SKY/WX    TMP DP  RH WIND       PRES   REMARKS
VICTORVILLE AP SUNNY     46  14  27 CALM      30.29S
HESPERIA         N/A     47  16  29 E3        30.38S
APPLE VALLEY     N/A     49  16  26 E3        30.36F
PALMDALE       SUNNY     46  17  31 N10       30.29F
LANCASTER      SUNNY     48  16  27 E12       30.30F
EDWARDS AFB    MOSUNNY   46  13  26 N8        30.28F
DAGGETT        SUNNY     49  15  25 VRB3      30.31F
29 PALMS N     SUNNY     52  11  19 N6        30.36S
NEEDLES        SUNNY     58   8  13 N16       30.31S

$$

REGIONAL REPORTS

CITY           SKY/WX    TMP DP  RH WIND       PRES   REMARKS
SANTA BARBARA  SUNNY     59  35  40 SW6       30.24S
SANDBERG       SUNNY     41  12  30 E18G31    30.25S
LAS VEGAS NV   SUNNY     48  10  21 N10       30.29S
PHOENIX AZ     SUNNY     52  17  25 W6        30.22F
TIJUANA        SUNNY     59  21  23 NW5       30.22R
ENSENADA NW      N/A     58  32  36 CALM      30.10S

$$

OFFSHORE ISLANDS

CITY           SKY/WX    TMP DP  RH WIND       PRES   REMARKS
CATALINA ARPT  SUNNY     52  43  71 NE8       30.21S
SAN NICOLAS IS SUNNY     58  35  42 NE14      30.22S

$$

MARINE AND OFFSHORE BUOY REPORTS

STATION/POSITION SKY/WX   TEMP    WIND        PRES    VSBY  SWELL
                          AIR SEA DIR/SP/G                  HT/PER/DIR
                          (F)     (DEG/KT/KT) (MB)    (MI)  (FT/S/D)
TANNER BANKS               56 59              1023.0S
S CLEMENTE BASIN           57 61  290/  2/  4 1023.2R         7/300/ 8
SAN NICOLAS IS.               56                N/A           3/280/14
SO. S. ROSA ISLA           55 55  350/  8/ 10 1023.8R         7/280/15
W. S. BARBARA CH           53 53  320/  4/  6 1024.3R         5/300/ 8
M. S. BARBARA CH           54 55  320/  2/  4   N/A           3/250/15
S. MONICA BASIN               58   90/  8/ 10 1023.6S         3/300/15
S PEDRO CHANNEL               57                N/A           2/260/15
CMP PENDLETON NS              57                N/A           2/230/17
OCEANSIDE OFFSHR              57                N/A           2/210/15
TORREY PINES OTR              59                N/A           2/240/15
SAN DIEGO BAY                 63              1023.4F
POINT LOMA SOUTH              59                N/A           3/260/15

$$




USA.gov is the U.S. government's official web portal to all federal, state and local government web resources and services.